Location: Black Swamp Observatory
(41.3920°N, 84.1250°W)
Time: 11:50:18
(UTC-04:00)

Vanguard 2 - Pass Details

Date: 03 February 2022
Orbit: 552 x 2935 km, 32.9° (Epoch: 24 May)

Event Time Altitude Azimuth Distance (km) Brightness Sun altitude
Rises 20:36:29 0° 259° (W) 3,463 12.0 -30.5°
Reaches altitude 10° 20:38:41 10° 252° (WSW) 2,740 11.1 -30.9°
Maximum altitude 20:45:06 47° 181° (S) 1,740 9.1 -32.1°
Enters shadow 20:45:50 46° 167° (SSE) 1,816 9.1 -32.2°
